Location: Hengforden
(52.3167°N, 6.1333°E)
Time: 15:32:20
(UTC+00:00)

ALOS 2 - Pass Details

Date: 14 June 2025
Orbit: 630 x 632 km, 97.9° (Epoch: 20 July)

Event Time Altitude Azimuth Distance (km) Brightness Sun altitude
Exits shadow 23:12:56 23° 187° (S) 1,363 3.7 -14.2°
Maximum altitude 23:15:34 57° 259° (W) 746 2.9 -14.2°
Drops below altitude 10° 23:19:56 10° 339° (NNW) 2,029 6.4 -14.3°
Sets 23:22:11 0° 343° (NNW) 2,941 7.7 -14.3°
